This is the latest recevied weather packets stored in our database for station/object OK1PMP-6. If no packets are shown the sender has not sent any weather packets the latest 10 day(s).
| Time | Temp. | Humidity | Pressure | Rain* | Wind** | Luminosity | Snow |
|---|---|---|---|---|---|---|---|
| 1778133579 | 12.78° C | 90% | 1013 hPa | 0 mm | - | 146 W/m² | - |
| 1778132678 | 12.78° C | 92% | 1012.6 hPa | 0 mm | - | 79 W/m² | - |
| 1778131779 | 11.67° C | 94% | 1012.4 hPa | 0 mm | - | 85 W/m² | - |
| 1778130874 | 11.67° C | 95% | 1012.3 hPa | 0 mm | - | 130 W/m² | - |
| 1778129974 | 11.11° C | 96% | 1012.3 hPa | 0 mm | - | 111 W/m² | - |
| 1778129074 | 10.56° C | 96% | 1012.2 hPa | 0 mm | - | 47 W/m² | - |
| 1778128171 | 10.56° C | 96% | 1011.8 hPa | 0 mm | - | 19 W/m² | - |
| 1778127277 | 11.11° C | 97% | 1011.7 hPa | 0 mm | - | 11 W/m² | - |
| 1778126371 | 11.11° C | 97% | 1011.5 hPa | 0 mm | - | 9 W/m² | - |
| 1778125470 | 11.11° C | 96% | 1011.4 hPa | 0 mm | - | 6 W/m² | - |
| 1778124571 | 11.11° C | 96% | 1011.5 hPa | 0 mm | - | 3 W/m² | - |
| 1778123670 | 11.67° C | 97% | 1011.2 hPa | 0 mm | - | 0 W/m² | - |
| 1778122772 | 11.67° C | 97% | 1011.1 hPa | 0 mm | - | 0 W/m² | - |
| 1778121834 | 11.67° C | 98% | 1011 hPa | 0 mm | - | 0 W/m² | - |
| 1778120913 | 11.67° C | 98% | 1011 hPa | 0 mm | - | 0 W/m² | - |
| 1778119756 | 11.67° C | 98% | 1011.1 hPa | 0 mm | - | 0 W/m² | - |
| 1778118853 | 11.67° C | 97% | 1010.9 hPa | 0 mm | - | 0 W/m² | - |
| 1778117825 | 11.67° C | 97% | 1011.2 hPa | 0 mm | - | 0 W/m² | - |
| 1778116924 | 11.67° C | 97% | 1011.1 hPa | 0 mm | - | 0 W/m² | - |
| 1778115986 | 11.67° C | 97% | 1011 hPa | 0 mm | - | 0 W/m² | - |
| 1778115085 | 11.67° C | 97% | 1011 hPa | 0 mm | - | 0 W/m² | - |
| 1778114175 | 11.67° C | 96% | 1010.5 hPa | 0 mm | - | 0 W/m² | - |
| 1778113275 | 11.67° C | 97% | 1010.9 hPa | 0 mm | - | 0 W/m² | - |
| 1778112363 | 11.67° C | 97% | 1010.6 hPa | 0 mm | - | 0 W/m² | - |
| 1778111460 | 11.67° C | 97% | 1010.1 hPa | 0 mm | - | 0 W/m² | - |
* Rain latest hour (hover to see other rain measurements)
** Current wind speed in m/s (hover to see current wind gust speed)